Location: Mentone
(34.5413°N, 85.5351°W)
Time: 02:28:55
(UTC-06:00)

A-11 Canister half - Visible Passes

Search period start: 28 November 2014 00:00
Search period end: 08 December 2014 00:00
Orbit: 1525 x 1685 km, 47.3° (Epoch: 27 November)

Date Brightness Start Highest point End Pass type
(mag) Time Alt. Az. Time Alt. Az. Time Alt. Az.
28 Nov 10.8 01:44:37 19° NE 01:44:37 19° NE 01:47:02 10° NE visible
28 Nov 9.7 03:42:55 37° NNW 03:44:32 39° N 03:53:31 10° ENE visible
28 Nov 9.4 05:41:29 10° NW 05:51:19 63° NNE 06:00:45 10° ESE visible
29 Nov 11.1 01:24:18 14° NE 01:24:18 14° NE 01:25:28 10° NE visible
29 Nov 9.7 03:22:37 39° N 03:22:53 39° N 03:31:53 10° ENE visible
29 Nov 9.4 05:20:56 14° NW 05:29:43 61° NNE 05:39:09 10° ESE visible
30 Nov 9.9 03:02:20 38° NNE 03:02:20 38° NNE 03:10:15 10° ENE visible
30 Nov 9.4 05:00:38 19° NW 05:08:07 59° NNE 05:17:34 10° ESE visible
01 Dec 10.1 02:42:03 35° NNE 02:42:03 35° NNE 02:48:37 10° ENE visible
01 Dec 9.4 04:40:22 25° NW 04:46:31 57° NNE 04:55:57 10° ESE visible
02 Dec 10.3 02:21:48 29° NE 02:21:48 29° NE 02:26:59 10° ENE visible
02 Dec 9.4 04:20:07 32° NW 04:24:54 56° NNE 04:34:21 10° ESE visible
03 Dec 10.6 02:01:34 24° NE 02:01:34 24° NE 02:05:21 10° ENE visible
03 Dec 9.4 03:59:53 40° NNW 04:03:18 54° NNE 04:12:44 10° E visible
03 Dec 9.3 05:58:59 10° WNW 06:08:40 63° SW 06:18:01 10° SE visible
04 Dec 10.9 01:41:22 18° NE 01:41:22 18° NE 01:43:43 10° ENE visible
04 Dec 9.4 03:39:42 47° NNW 03:41:40 53° NNE 03:51:06 10° E visible
04 Dec 9.2 05:38:01 12° WNW 05:47:09 67° SW 05:56:34 10° SE visible
05 Dec 11.2 01:21:13 13° ENE 01:21:13 13° ENE 01:22:05 10° ENE visible
05 Dec 9.4 03:19:32 51° NNE 03:20:03 51° NNE 03:29:29 10° E visible
05 Dec 9.1 05:17:51 18° WNW 05:25:37 70° SW 05:35:06 10° SE visible
05 Dec 10.9 20:29:54 10° SSW 20:31:18 15° SSW 20:31:18 15° SSW visible
06 Dec 9.6 02:59:25 49° NE 02:59:25 49° NE 03:07:51 10° E visible
06 Dec 9.1 04:57:44 26° WNW 05:04:05 73° SW 05:13:38 10° SE visible
06 Dec 10.6 20:08:30 10° SSW 20:11:28 21° SSW 20:11:28 21° SSW visible
07 Dec 9.9 02:39:20 42° ENE 02:39:20 42° ENE 02:46:13 10° E visible
07 Dec 9.0 04:37:39 35° WNW 04:42:33 77° SW 04:52:09 10° SE visible
07 Dec 10.2 19:47:06 10° SSW 19:51:38 28° S 19:51:38 28° S visible
